﻿_id,日時,平均風速(m/s),平均風向,最大瞬間風速(m/s),最大風速時風向,気温(℃),湿度(%),10分間移動積算雨量(mm),1時間移動積算雨量(mm),日雨量(mm),累計雨量(mm),日射(日積算)(MJ/m2),日照(日積算)(min),現地気圧(hPa),海面気圧(hPa)
1,2022-02-07T00:00:00,0.3,西,0.8,西南西,-0.9,88.6,0,0,0,0,6.39,87,1009.9,1024.7
2,2022-02-07T00:01:00,0.3,西,0.8,西南西,-0.7,89.2,0,0,0,0,0,0,1009.9,1024.7
3,2022-02-07T00:02:00,0.2,静穏,0.8,西南西,-0.8,89.4,0,0,0,0,0,0,1009.9,1024.7
4,2022-02-07T00:03:00,0.2,静穏,0.8,西南西,-0.9,89.1,0,0,0,0,0,0,1009.9,1024.7
5,2022-02-07T00:04:00,0.2,静穏,0.5,西北西,-1,88.8,0,0,0,0,0,0,1010,1024.8
6,2022-02-07T00:05:00,0.2,静穏,0.4,北北西,-1,88.8,0,0,0,0,0,0,1010,1024.8
7,2022-02-07T00:06:00,0.2,静穏,0.4,北北西,-1,89.1,0,0,0,0,0,0,1010,1024.8
8,2022-02-07T00:07:00,0.2,静穏,0.4,北北西,-1,89.3,0,0,0,0,0,0,1010,1024.8
9,2022-02-07T00:08:00,0.2,静穏,0.4,北北西,-1,89.4,0,0,0,0,0,0,1010,1024.8
10,2022-02-07T00:09:00,0.2,静穏,0.4,北北西,-1,89.6,0,0,0,0,0,0,1010,1024.8
11,2022-02-07T00:10:00,0.2,静穏,0.4,北北西,-1,89.9,0,0,0,0,0,0,1010.1,1024.9
12,2022-02-07T00:11:00,0.2,静穏,0.4,北北西,-1,90,0,0,0,0,0,0,1010.2,1025
13,2022-02-07T00:12:00,0.3,北西,0.8,西南西,-1,90,0,0,0,0,0,0,1010.2,1025
14,2022-02-07T00:13:00,0.3,北西,0.8,西南西,-1,90,0,0,0,0,0,0,1010.1,1024.9
15,2022-02-07T00:14:00,0.3,北西,0.8,西南西,-1,90.1,0,0,0,0,0,0,1010.1,1024.9
16,2022-02-07T00:15:00,0.3,北西,0.8,西南西,-1,90.3,0,0,0,0,0,0,1010,1024.8
17,2022-02-07T00:16:00,0.3,北西,0.8,西南西,-0.9,90.7,0,0,0,0,0,0,1010,1024.8
18,2022-02-07T00:17:00,0.2,静穏,0.8,西南西,-0.9,90.8,0,0,0,0,0,0,1010,1024.8
19,2022-02-07T00:18:00,0.2,静穏,0.8,西南西,-0.9,90.8,0,0,0,0,0,0,1010,1024.8
20,2022-02-07T00:19:00,0.2,静穏,0.8,西南西,-0.9,90.9,0,0,0,0,0,0,1010,1024.8
21,2022-02-07T00:20:00,0.2,静穏,0.8,西南西,-0.8,91,0,0,0,0,0,0,1010,1024.8
22,2022-02-07T00:21:00,0.2,静穏,0.8,西南西,-0.8,91.3,0,0,0,0,0,0,1010,1024.8
23,2022-02-07T00:22:00,0.1,静穏,0.7,南西,-0.7,91.4,0,0,0,0,0,0,1010.1,1024.9
24,2022-02-07T00:23:00,0.1,静穏,0.6,西,-0.7,91.4,0,0,0,0,0,0,1010.2,1025
25,2022-02-07T00:24:00,0.1,静穏,0.6,西,-0.8,91.2,0,0,0,0,0,0,1010.3,1025.1
26,2022-02-07T00:25:00,0.1,静穏,0.6,西,-0.8,91,0,0,0,0,0,0,1010.4,1025.2
27,2022-02-07T00:26:00,0.1,静穏,0.6,西,-0.7,91.4,0,0,0,0,0,0,1010.3,1025.1
28,2022-02-07T00:27:00,0.1,静穏,0.6,西,-0.8,91.2,0,0,0,0,0,0,1010.3,1025.1
29,2022-02-07T00:28:00,0.1,静穏,0.6,西,-0.8,90.7,0,0,0,0,0,0,1010.3,1025.1
30,2022-02-07T00:29:00,0.1,静穏,0.6,西,-0.8,90.9,0,0,0,0,0,0,1010.2,1025
31,2022-02-07T00:30:00,0.1,静穏,0.6,西,-0.8,90.9,0,0,0,0,0,0,1010.2,1025
32,2022-02-07T00:31:00,0.1,静穏,0.6,西,-0.8,91.1,0,0,0,0,0,0,1010.2,1025
33,2022-02-07T00:32:00,0.1,静穏,0.6,西,-0.7,91.3,0,0,0,0,0,0,1010.2,1025
34,2022-02-07T00:33:00,0.1,静穏,0.6,南西,-0.6,91.7,0,0,0,0,0,0,1010.2,1025
35,2022-02-07T00:34:00,0.1,静穏,0.8,南西,-0.8,91.1,0,0,0,0,0,0,1010.2,1025
36,2022-02-07T00:35:00,0.1,静穏,0.8,南西,-0.9,90.5,0,0,0,0,0,0,1010.2,1025
37,2022-02-07T00:36:00,0.1,静穏,0.8,南西,-0.8,90.7,0,0,0,0,0,0,1010.3,1025.1
38,2022-02-07T00:37:00,0.1,静穏,0.8,南西,-0.8,90.8,0,0,0,0,0,0,1010.3,1025.1
39,2022-02-07T00:38:00,0.2,静穏,0.8,南西,-0.5,91.7,0,0,0,0,0,0,1010.3,1025.1
40,2022-02-07T00:39:00,0.2,静穏,0.8,南西,-0.7,91.4,0,0,0,0,0,0,1010.3,1025.1
41,2022-02-07T00:40:00,0.2,静穏,0.8,南西,-0.7,90.7,0,0,0,0,0,0,1010.3,1025.1
42,2022-02-07T00:41:00,0.2,静穏,0.8,南西,-0.8,91.1,0,0,0,0,0,0,1010.3,1025.1
43,2022-02-07T00:42:00,0.2,静穏,0.8,南西,-0.8,90.3,0,0,0,0,0,0,1010.3,1025.1
44,2022-02-07T00:43:00,0.2,静穏,0.8,南西,-0.9,90.3,0,0,0,0,0,0,1010.3,1025.1
45,2022-02-07T00:44:00,0.2,静穏,0.8,南南西,-0.8,90.7,0,0,0,0,0,0,1010.4,1025.2
46,2022-02-07T00:45:00,0.2,静穏,0.8,南南西,-0.6,91,0,0,0,0,0,0,1010.4,1025.2
47,2022-02-07T00:46:00,0.2,静穏,0.8,南南西,-0.5,91.4,0,0,0,0,0,0,1010.5,1025.3
48,2022-02-07T00:47:00,0.2,静穏,0.8,南南西,-0.6,91.4,0,0,0,0,0,0,1010.6,1025.4
49,2022-02-07T00:48:00,0.2,静穏,0.8,南南西,-0.5,91,0,0,0,0,0,0,1010.6,1025.4
50,2022-02-07T00:49:00,0.2,静穏,0.8,南南西,-0.8,90.8,0,0,0,0,0,0,1010.7,1025.5
51,2022-02-07T00:50:00,0.2,静穏,0.8,南南西,-0.7,90.3,0,0,0,0,0,0,1010.6,1025.4
52,2022-02-07T00:51:00,0.3,南西,0.8,南南西,-0.6,90.9,0,0,0,0,0,0,1010.6,1025.4
53,2022-02-07T00:52:00,0.3,南西,0.8,南南西,-0.8,90.7,0,0,0,0,0,0,1010.5,1025.3
54,2022-02-07T00:53:00,0.3,南南西,0.8,南南西,-0.9,90,0,0,0,0,0,0,1010.5,1025.3
55,2022-02-07T00:54:00,0.3,南南西,1,南南西,-0.8,90.1,0,0,0,0,0,0,1010.4,1025.2
56,2022-02-07T00:55:00,0.3,南南西,1,南南西,-0.8,90.2,0,0,0,0,0,0,1010.4,1025.2
57,2022-02-07T00:56:00,0.3,南南西,1.3,南,-0.8,90,0,0,0,0,0,0,1010.5,1025.3
58,2022-02-07T00:57:00,0.4,南南西,1.3,南,-0.6,90.4,0,0,0,0,0,0,1010.5,1025.3
59,2022-02-07T00:58:00,0.4,南南西,1.3,南,-0.7,90.4,0,0,0,0,0,0,1010.6,1025.4
60,2022-02-07T00:59:00,0.4,南南西,1.3,南,-0.6,90.2,0,0,0,0,0,0,1010.5,1025.3
61,2022-02-07T01:00:00,0.5,南南西,1.3,南,-0.7,89.6,0,0,0,0,0,0,1010.6,1025.4
62,2022-02-07T01:01:00,0.5,南南西,1.3,南,-0.8,88.7,0,0,0,0,0,0,1010.5,1025.3
63,2022-02-07T01:02:00,0.5,南南西,1.3,南,-0.8,88.4,0,0,0,0,0,0,1010.5,1025.3
64,2022-02-07T01:03:00,0.5,南南西,1.3,南,-0.9,87.8,0,0,0,0,0,0,1010.5,1025.3
65,2022-02-07T01:04:00,0.5,南南西,1.3,南,-0.9,87.3,0,0,0,0,0,0,1010.5,1025.3
66,2022-02-07T01:05:00,0.5,南西,1.3,南,-0.9,87.1,0,0,0,0,0,0,1010.5,1025.3
67,2022-02-07T01:06:00,0.5,南西,1.1,南南西,-0.8,87.3,0,0,0,0,0,0,1010.5,1025.3
68,2022-02-07T01:07:00,0.4,南南西,1.1,南南西,-0.5,87.7,0,0,0,0,0,0,1010.5,1025.3
69,2022-02-07T01:08:00,0.4,南南西,1.1,南南西,-0.6,87.3,0,0,0,0,0,0,1010.5,1025.3
70,2022-02-07T01:09:00,0.3,南南西,1.1,南南西,-0.6,86.8,0,0,0,0,0,0,1010.5,1025.3
71,2022-02-07T01:10:00,0.3,南南西,1.1,南南西,-0.6,86.6,0,0,0,0,0,0,1010.5,1025.3
72,2022-02-07T01:11:00,0.2,静穏,0.9,南,-0.6,86.4,0,0,0,0,0,0,1010.5,1025.3
73,2022-02-07T01:12:00,0.2,静穏,0.9,南,-0.5,86.7,0,0,0,0,0,0,1010.6,1025.4
74,2022-02-07T01:13:00,0.1,静穏,0.9,南,-0.5,86.6,0,0,0,0,0,0,1010.6,1025.4
75,2022-02-07T01:14:00,0.1,静穏,0.8,南,-0.7,86.3,0,0,0,0,0,0,1010.5,1025.3
76,2022-02-07T01:15:00,0.1,静穏,0.8,南,-0.8,86.2,0,0,0,0,0,0,1010.5,1025.3
77,2022-02-07T01:16:00,0.1,静穏,0.8,南,-0.8,86.3,0,0,0,0,0,0,1010.6,1025.4
78,2022-02-07T01:17:00,0,静穏,0.4,北,-0.7,86.5,0,0,0,0,0,0,1010.6,1025.4
79,2022-02-07T01:18:00,0,静穏,0.4,北,-0.5,87.5,0,0,0,0,0,0,1010.6,1025.4
80,2022-02-07T01:19:00,0,静穏,0.4,北,-0.5,87.7,0,0,0,0,0,0,1010.6,1025.4
81,2022-02-07T01:20:00,0.1,静穏,0.7,南西,-0.4,88.1,0,0,0,0,0,0,1010.6,1025.4
82,2022-02-07T01:21:00,0.1,静穏,1,南西,-0.4,87.9,0,0,0,0,0,0,1010.6,1025.4
83,2022-02-07T01:22:00,0.2,静穏,1.1,南南西,-0.4,88.3,0,0,0,0,0,0,1010.6,1025.4
84,2022-02-07T01:23:00,0.2,静穏,1.1,南南西,-0.7,86.8,0,0,0,0,0,0,1010.6,1025.4
85,2022-02-07T01:24:00,0.3,南,1.1,南南西,-0.5,86.8,0,0,0,0,0,0,1010.6,1025.4
86,2022-02-07T01:25:00,0.3,南西,1.1,南南西,-0.9,86.5,0,0,0,0,0,0,1010.6,1025.4
87,2022-02-07T01:26:00,0.3,南西,1.1,南南西,-0.9,85.8,0,0,0,0,0,0,1010.7,1025.5
88,2022-02-07T01:27:00,0.3,南西,1.1,南南西,-0.8,86.4,0,0,0,0,0,0,1010.7,1025.5
89,2022-02-07T01:28:00,0.3,南西,1.1,南南西,-0.8,86.4,0,0,0,0,0,0,1010.7,1025.5
90,2022-02-07T01:29:00,0.3,南西,1.1,南南西,-0.7,86.9,0,0,0,0,0,0,1010.7,1025.5
91,2022-02-07T01:30:00,0.3,南西,1.1,南南西,-0.4,87.5,0,0,0,0,0,0,1010.6,1025.4
92,2022-02-07T01:31:00,0.2,静穏,1.1,南南西,-0.3,87.9,0,0,0,0,0,0,1010.6,1025.4
93,2022-02-07T01:32:00,0.2,静穏,0.9,南西,-0.4,87.8,0,0,0,0,0,0,1010.6,1025.4
94,2022-02-07T01:33:00,0.2,静穏,0.7,南南西,-0.6,86.9,0,0,0,0,0,0,1010.5,1025.3
95,2022-02-07T01:34:00,0.2,静穏,0.9,南南西,-0.7,86.1,0,0,0,0,0,0,1010.5,1025.3
96,2022-02-07T01:35:00,0.2,静穏,0.9,南南西,-0.9,85.6,0,0,0,0,0,0,1010.4,1025.2
97,2022-02-07T01:36:00,0.2,静穏,0.9,南南西,-0.9,85.5,0,0,0,0,0,0,1010.5,1025.3
98,2022-02-07T01:37:00,0.2,静穏,0.9,南南西,-0.9,85.8,0,0,0,0,0,0,1010.5,1025.3
99,2022-02-07T01:38:00,0.2,静穏,0.9,南南西,-0.7,86.8,0,0,0,0,0,0,1010.5,1025.3
100,2022-02-07T01:39:00,0.2,静穏,0.9,南南西,-0.9,86.7,0,0,0,0,0,0,1010.6,1025.4
101,2022-02-07T01:40:00,0.2,静穏,0.9,南南西,-0.9,86.6,0,0,0,0,0,0,1010.7,1025.5
102,2022-02-07T01:41:00,0.2,静穏,0.9,南南西,-0.6,87.3,0,0,0,0,0,0,1010.6,1025.4
103,2022-02-07T01:42:00,0.2,静穏,0.9,南南西,-0.8,87.5,0,0,0,0,0,0,1010.6,1025.4
104,2022-02-07T01:43:00,0.2,静穏,0.9,南南西,-0.8,86.9,0,0,0,0,0,0,1010.6,1025.4
105,2022-02-07T01:44:00,0.2,静穏,1.1,西南西,-0.8,87,0,0,0,0,0,0,1010.6,1025.4
106,2022-02-07T01:45:00,0.4,南西,1.4,南西,-1,86.7,0,0,0,0,0,0,1010.7,1025.5
107,2022-02-07T01:46:00,0.4,南西,1.4,南西,-1.1,86.3,0,0,0,0,0,0,1010.7,1025.5
108,2022-02-07T01:47:00,0.6,南西,1.4,南西,-1.1,86.4,0,0,0,0,0,0,1010.7,1025.5
109,2022-02-07T01:48:00,0.7,南西,1.5,西南西,-1.1,86.4,0,0,0,0,0,0,1010.6,1025.4
110,2022-02-07T01:49:00,0.7,南西,1.5,西南西,-1,86.9,0,0,0,0,0,0,1010.6,1025.4
111,2022-02-07T01:50:00,0.8,南西,1.5,西南西,-0.8,88,0,0,0,0,0,0,1010.6,1025.4
112,2022-02-07T01:51:00,0.8,南西,1.5,西南西,-0.8,88.1,0,0,0,0,0,0,1010.7,1025.5
113,2022-02-07T01:52:00,0.9,西南西,1.5,西南西,-0.8,88.1,0,0,0,0,0,0,1010.7,1025.5
114,2022-02-07T01:53:00,0.9,西南西,1.5,西南西,-0.9,87.9,0,0,0,0,0,0,1010.7,1025.5
115,2022-02-07T01:54:00,0.8,西南西,1.5,西南西,-1.1,87.3,0,0,0,0,0,0,1010.6,1025.4
116,2022-02-07T01:55:00,0.8,西南西,1.5,西南西,-1.1,87.6,0,0,0,0,0,0,1010.6,1025.4
117,2022-02-07T01:56:00,0.8,西南西,1.5,西南西,-1.1,87.9,0,0,0,0,0,0,1010.7,1025.5
118,2022-02-07T01:57:00,0.7,西南西,1.5,西南西,-1.2,88.1,0,0,0,0,0,0,1010.7,1025.5
119,2022-02-07T01:58:00,0.7,西南西,1.4,西南西,-1.1,88.6,0,0,0,0,0,0,1010.7,1025.5
120,2022-02-07T01:59:00,0.6,西南西,1.4,西南西,-1,89.2,0,0,0,0,0,0,1010.8,1025.6
121,2022-02-07T02:00:00,0.6,西南西,1.4,西南西,-0.9,89.8,0,0,0,0,0,0,1010.8,1025.6
122,2022-02-07T02:01:00,0.6,南西,1.4,西南西,-1,89.6,0,0,0,0,0,0,1010.8,1025.6
123,2022-02-07T02:02:00,0.5,南西,1.4,西南西,-1,89.7,0,0,0,0,0,0,1010.8,1025.6
124,2022-02-07T02:03:00,0.5,南西,1.4,西南西,-0.8,90.4,0,0,0,0,0,0,1010.8,1025.6
125,2022-02-07T02:04:00,0.5,西南西,1.4,西南西,-0.8,90.7,0,0,0,0,0,0,1010.8,1025.6
126,2022-02-07T02:05:00,0.4,西南西,1.3,西南西,-1,90.2,0,0,0,0,0,0,1010.8,1025.6
127,2022-02-07T02:06:00,0.4,南西,1.2,西南西,-1.1,89.8,0,0,0,0,0,0,1010.9,1025.7
128,2022-02-07T02:07:00,0.4,南西,0.9,西南西,-0.9,90.1,0,0,0,0,0,0,1010.9,1025.7
129,2022-02-07T02:08:00,0.4,南西,0.9,西南西,-0.8,91.3,0,0,0,0,0,0,1011,1025.8
130,2022-02-07T02:09:00,0.3,南西,0.9,西南西,-0.8,90.9,0,0,0,0,0,0,1011,1025.8
131,2022-02-07T02:10:00,0.3,南西,0.9,西南西,-0.8,91.1,0,0,0,0,0,0,1011.1,1025.9
132,2022-02-07T02:11:00,0.3,西南西,0.9,西南西,-0.9,90.9,0,0,0,0,0,0,1011,1025.8
133,2022-02-07T02:12:00,0.2,静穏,0.9,西南西,-0.9,90.5,0,0,0,0,0,0,1011.1,1025.9
134,2022-02-07T02:13:00,0.2,静穏,0.9,西南西,-1,90.7,0,0,0,0,0,0,1011.1,1025.9
135,2022-02-07T02:14:00,0.2,静穏,0.8,南西,-1,90.5,0,0,0,0,0,0,1011.1,1025.9
136,2022-02-07T02:15:00,0.2,静穏,0.8,南西,-1,90.6,0,0,0,0,0,0,1011.1,1025.9
137,2022-02-07T02:16:00,0.1,静穏,0.8,南西,-1,90.7,0,0,0,0,0,0,1011,1025.8
138,2022-02-07T02:17:00,0.1,静穏,0.7,南西,-1.1,90.9,0,0,0,0,0,0,1011,1025.8
139,2022-02-07T02:18:00,0.1,静穏,0.7,南西,-1,90.8,0,0,0,0,0,0,1011,1025.8
140,2022-02-07T02:19:00,0,静穏,0.3,西北西,-1.1,90.9,0,0,0,0,0,0,1010.9,1025.7
141,2022-02-07T02:20:00,0.1,静穏,0.4,西北西,-1.1,91,0,0,0,0,0,0,1010.9,1025.7
142,2022-02-07T02:21:00,0.1,静穏,0.4,西北西,-1.2,91,0,0,0,0,0,0,1010.8,1025.6
143,2022-02-07T02:22:00,0.1,静穏,0.4,西北西,-1.3,90.8,0,0,0,0,0,0,1010.8,1025.6
144,2022-02-07T02:23:00,0.1,静穏,0.4,西北西,-1.2,91,0,0,0,0,0,0,1010.8,1025.6
145,2022-02-07T02:24:00,0.1,静穏,0.5,北東,-1.1,91.2,0,0,0,0,0,0,1010.8,1025.6
146,2022-02-07T02:25:00,0.1,静穏,0.5,北東,-1.1,91.6,0,0,0,0,0,0,1010.8,1025.6
147,2022-02-07T02:26:00,0.1,静穏,0.5,北東,-1.1,91.5,0,0,0,0,0,0,1010.8,1025.6
148,2022-02-07T02:27:00,0.1,静穏,0.5,北東,-1.3,91.1,0,0,0,0,0,0,1010.7,1025.5
149,2022-02-07T02:28:00,0.1,静穏,0.5,北東,-1.3,90.8,0,0,0,0,0,0,1010.7,1025.5
150,2022-02-07T02:29:00,0.1,静穏,0.5,北東,-1.1,91.6,0,0,0,0,0,0,1010.7,1025.5
151,2022-02-07T02:30:00,0.1,静穏,0.5,北東,-1.1,92.2,0,0,0,0,0,0,1010.7,1025.5
152,2022-02-07T02:31:00,0.1,静穏,0.5,北東,-1.2,91.9,0,0,0,0,0,0,1010.6,1025.4
153,2022-02-07T02:32:00,0.1,静穏,0.5,北東,-1.2,91.7,0,0,0,0,0,0,1010.6,1025.4
154,2022-02-07T02:33:00,0.1,静穏,0.5,北東,-1.2,91.4,0,0,0,0,0,0,1010.6,1025.4
155,2022-02-07T02:34:00,0,静穏,0.4,北東,-1.3,91.3,0,0,0,0,0,0,1010.6,1025.4
156,2022-02-07T02:35:00,0.1,静穏,0.4,東北東,-1.4,91.1,0,0,0,0,0,0,1010.6,1025.4
157,2022-02-07T02:36:00,0.1,静穏,0.4,東北東,-1.2,91.4,0,0,0,0,0,0,1010.6,1025.4
158,2022-02-07T02:37:00,0.1,静穏,0.4,東北東,-1.2,91.8,0,0,0,0,0,0,1010.6,1025.4
159,2022-02-07T02:38:00,0.2,静穏,0.6,東北東,-1.1,91.6,0,0,0,0,0,0,1010.5,1025.3
160,2022-02-07T02:39:00,0.2,静穏,0.6,東北東,-1.1,92,0,0,0,0,0,0,1010.5,1025.3
161,2022-02-07T02:40:00,0.2,静穏,0.7,東北東,-1.3,91.6,0,0,0,0,0,0,1010.5,1025.3
162,2022-02-07T02:41:00,0.3,東北東,0.7,東北東,-1.4,90.7,0,0,0,0,0,0,1010.5,1025.3
163,2022-02-07T02:42:00,0.3,東北東,0.7,東北東,-1.4,90.5,0,0,0,0,0,0,1010.5,1025.3
164,2022-02-07T02:43:00,0.3,東北東,0.7,東北東,-1.2,90.8,0,0,0,0,0,0,1010.5,1025.3
165,2022-02-07T02:44:00,0.3,東北東,0.7,東北東,-1.2,91.4,0,0,0,0,0,0,1010.5,1025.3
166,2022-02-07T02:45:00,0.3,東北東,0.7,東北東,-1.3,91,0,0,0,0,0,0,1010.4,1025.2
167,2022-02-07T02:46:00,0.3,東北東,0.7,東北東,-1.4,90.9,0,0,0,0,0,0,1010.4,1025.2
168,2022-02-07T02:47:00,0.2,静穏,0.7,東北東,-1.4,90.5,0,0,0,0,0,0,1010.3,1025.1
169,2022-02-07T02:48:00,0.2,静穏,0.7,東北東,-1.5,90.3,0,0,0,0,0,0,1010.3,1025.1
170,2022-02-07T02:49:00,0.2,静穏,0.7,東北東,-1.4,90.3,0,0,0,0,0,0,1010.3,1025.1
171,2022-02-07T02:50:00,0.2,静穏,0.6,東北東,-1.4,90.5,0,0,0,0,0,0,1010.3,1025.1
172,2022-02-07T02:51:00,0.1,静穏,0.6,東北東,-1.4,90.5,0,0,0,0,0,0,1010.3,1025.1
173,2022-02-07T02:52:00,0.1,静穏,0.5,南,-1.4,90.6,0,0,0,0,0,0,1010.2,1025
174,2022-02-07T02:53:00,0.1,静穏,0.5,南,-1.6,90.3,0,0,0,0,0,0,1010.3,1025.1
175,2022-02-07T02:54:00,0.1,静穏,0.6,南南西,-1.5,90.3,0,0,0,0,0,0,1010.2,1025
176,2022-02-07T02:55:00,0.2,静穏,1,南南西,-1.6,90.5,0,0,0,0,0,0,1010.2,1025
177,2022-02-07T02:56:00,0.2,静穏,1,南南西,-1.3,90.7,0,0,0,0,0,0,1010.2,1025
178,2022-02-07T02:57:00,0.3,南,1,南南西,-1.5,90.9,0,0,0,0,0,0,1010.2,1025
179,2022-02-07T02:58:00,0.3,南南西,1.2,南西,-1.6,90.5,0,0,0,0,0,0,1010.2,1025
180,2022-02-07T02:59:00,0.4,南南西,1.2,南西,-1.4,90.8,0,0,0,0,0,0,1010.2,1025
181,2022-02-07T03:00:00,0.5,南南西,1.3,南南西,-1.4,91.2,0,0,0,0,0,0,1010.3,1025.1
182,2022-02-07T03:01:00,0.5,南南西,1.3,南南西,-1.4,91.2,0,0,0,0,0,0,1010.4,1025.2
183,2022-02-07T03:02:00,0.7,南南西,1.8,南,-1.5,90.8,0,0,0,0,0,0,1010.3,1025.1
184,2022-02-07T03:03:00,0.8,南南西,1.8,南,-1.6,90.4,0,0,0,0,0,0,1010.4,1025.2
185,2022-02-07T03:04:00,0.8,南南西,1.8,南,-1.5,90.8,0,0,0,0,0,0,1010.4,1025.2
186,2022-02-07T03:05:00,0.8,南西,1.8,南,-1.6,90.7,0,0,0,0,0,0,1010.4,1025.2
187,2022-02-07T03:06:00,0.9,南西,1.8,南,-1.7,90.3,0,0,0,0,0,0,1010.4,1025.2
188,2022-02-07T03:07:00,0.8,南西,1.8,南,-1.7,90.2,0,0,0,0,0,0,1010.3,1025.1
189,2022-02-07T03:08:00,0.8,南南西,1.8,南,-1.4,91.3,0,0,0,0,0,0,1010.3,1025.1
190,2022-02-07T03:09:00,0.7,南南西,1.8,南,-1.3,91.6,0,0,0,0,0,0,1010.3,1025.1
191,2022-02-07T03:10:00,0.6,南西,1.8,南,-1.4,91.2,0,0,0,0,0,0,1010.3,1025.1
192,2022-02-07T03:11:00,0.5,南南西,1.8,南,-1.6,90.7,0,0,0,0,0,0,1010.4,1025.2
193,2022-02-07T03:12:00,0.4,南南西,1.5,南南西,-1.7,90.2,0,0,0,0,0,0,1010.4,1025.2
194,2022-02-07T03:13:00,0.3,南南西,1.4,南西,-1.7,90.3,0,0,0,0,0,0,1010.5,1025.3
195,2022-02-07T03:14:00,0.3,南,1.4,南西,-1.6,90.5,0,0,0,0,0,0,1010.4,1025.2
196,2022-02-07T03:15:00,0.2,静穏,1.4,南西,-1.6,90.6,0,0,0,0,0,0,1010.4,1025.2
197,2022-02-07T03:16:00,0.2,静穏,0.6,南東,-1.7,90.5,0,0,0,0,0,0,1010.4,1025.2
198,2022-02-07T03:17:00,0.2,静穏,0.6,南東,-1.7,90.2,0,0,0,0,0,0,1010.4,1025.2
199,2022-02-07T03:18:00,0.2,静穏,0.7,南,-1.8,90.3,0,0,0,0,0,0,1010.3,1025.1
200,2022-02-07T03:19:00,0.2,静穏,0.7,南,-1.8,90.3,0,0,0,0,0,0,1010.3,1025.1
201,2022-02-07T03:20:00,0.2,静穏,0.7,南,-1.8,90.3,0,0,0,0,0,0,1010.3,1025.1
202,2022-02-07T03:21:00,0.2,静穏,0.7,南,-1.8,90.3,0,0,0,0,0,0,1010.4,1025.2
203,2022-02-07T03:22:00,0.2,静穏,0.7,南,-1.8,90.5,0,0,0,0,0,0,1010.3,1025.1
204,2022-02-07T03:23:00,0.2,静穏,0.7,南,-1.8,90.5,0,0,0,0,0,0,1010.4,1025.2
205,2022-02-07T03:24:00,0.2,静穏,0.7,南,-1.7,90.5,0,0,0,0,0,0,1010.4,1025.2
206,2022-02-07T03:25:00,0.2,静穏,0.7,南,-1.4,91.4,0,0,0,0,0,0,1010.4,1025.2
207,2022-02-07T03:26:00,0.1,静穏,0.7,南,-1.6,91.1,0,0,0,0,0,0,1010.4,1025.2
208,2022-02-07T03:27:00,0.1,静穏,0.7,南,-1.5,90.9,0,0,0,0,0,0,1010.3,1025.1
209,2022-02-07T03:28:00,0.1,静穏,0.5,南西,-1.4,90.9,0,0,0,0,0,0,1010.3,1025.1
210,2022-02-07T03:29:00,0.1,静穏,0.5,南西,-1.6,90.9,0,0,0,0,0,0,1010.3,1025.1
211,2022-02-07T03:30:00,0.1,静穏,0.5,南西,-1.7,90.1,0,0,0,0,0,0,1010.3,1025.1
212,2022-02-07T03:31:00,0.1,静穏,0.6,北東,-1.6,90.4,0,0,0,0,0,0,1010.2,1025
213,2022-02-07T03:32:00,0.1,静穏,0.6,北東,-1.7,90.1,0,0,0,0,0,0,1010.2,1025
214,2022-02-07T03:33:00,0.1,静穏,0.6,北東,-1.6,90.4,0,0,0,0,0,0,1010.2,1025
215,2022-02-07T03:34:00,0.1,静穏,0.6,北東,-1.5,90.9,0,0,0,0,0,0,1010.3,1025.1
216,2022-02-07T03:35:00,0.1,静穏,0.6,北東,-1.5,90.6,0,0,0,0,0,0,1010.2,1025
217,2022-02-07T03:36:00,0.1,静穏,0.6,北東,-1.6,90.2,0,0,0,0,0,0,1010.2,1025
218,2022-02-07T03:37:00,0.1,静穏,0.6,北東,-1.5,90.3,0,0,0,0,0,0,1010.2,1025
219,2022-02-07T03:38:00,0.1,静穏,0.6,北東,-1.4,90.7,0,0,0,0,0,0,1010.2,1025
220,2022-02-07T03:39:00,0.1,静穏,0.6,北東,-1.3,90.8,0,0,0,0,0,0,1010.2,1025
221,2022-02-07T03:40:00,0.1,静穏,0.6,北東,-1.5,90.4,0,0,0,0,0,0,1010.2,1025
222,2022-02-07T03:41:00,0.1,静穏,0.4,北北東,-1.5,89.9,0,0,0,0,0,0,1010.2,1025
223,2022-02-07T03:42:00,0.1,静穏,0.4,北北東,-1.5,89.9,0,0,0,0,0,0,1010.2,1025
224,2022-02-07T03:43:00,0.1,静穏,0.3,東北東,-1.5,89.7,0,0,0,0,0,0,1010.2,1025
225,2022-02-07T03:44:00,0.1,静穏,0.3,東北東,-1.5,90,0,0,0,0,0,0,1010.1,1024.9
226,2022-02-07T03:45:00,0.1,静穏,0.3,東北東,-1.3,90.3,0,0,0,0,0,0,1010.2,1025
227,2022-02-07T03:46:00,0.1,静穏,0.3,東北東,-1.4,90.1,0,0,0,0,0,0,1010.2,1025
228,2022-02-07T03:47:00,0.1,静穏,0.3,東北東,-1.5,89.6,0,0,0,0,0,0,1010.2,1025
229,2022-02-07T03:48:00,0.1,静穏,0.5,西南西,-1.3,89.6,0,0,0,0,0,0,1010.2,1025
230,2022-02-07T03:49:00,0.1,静穏,0.6,南西,-1.1,90.5,0,0,0,0,0,0,1010.2,1025
231,2022-02-07T03:50:00,0.1,静穏,0.6,南西,-1,90.7,0,0,0,0,0,0,1010.3,1025.1
232,2022-02-07T03:51:00,0.1,静穏,0.6,南西,-1.2,90.1,0,0,0,0,0,0,1010.3,1025.1
233,2022-02-07T03:52:00,0.1,静穏,0.6,南西,-1.3,89.5,0,0,0,0,0,0,1010.4,1025.2
234,2022-02-07T03:53:00,0.1,静穏,0.6,南西,-1.3,89.4,0,0,0,0,0,0,1010.4,1025.2
235,2022-02-07T03:54:00,0.1,静穏,0.6,南西,-1.2,89.6,0,0,0,0,0,0,1010.4,1025.2
236,2022-02-07T03:55:00,0.1,静穏,0.6,南西,-1.3,89.5,0,0,0,0,0,0,1010.4,1025.2
237,2022-02-07T03:56:00,0.2,静穏,0.6,南西,-1.4,89.1,0,0,0,0,0,0,1010.4,1025.2
238,2022-02-07T03:57:00,0.2,静穏,0.6,南西,-1.4,89.1,0,0,0,0,0,0,1010.4,1025.2
239,2022-02-07T03:58:00,0.2,静穏,0.6,南西,-1.3,89.4,0,0,0,0,0,0,1010.5,1025.3
240,2022-02-07T03:59:00,0.2,静穏,0.7,南西,-1.3,89.6,0,0,0,0,0,0,1010.5,1025.3
241,2022-02-07T04:00:00,0.2,静穏,0.7,南西,-1.1,89.6,0,0,0,0,0,0,1010.5,1025.3
242,2022-02-07T04:01:00,0.2,静穏,0.7,南西,-1.2,89.8,0,0,0,0,0,0,1010.5,1025.3
243,2022-02-07T04:02:00,0.2,静穏,0.7,南西,-0.8,90,0,0,0,0,0,0,1010.5,1025.3
244,2022-02-07T04:03:00,0.3,南西,1,南南西,-0.9,90.4,0,0,0,0,0,0,1010.6,1025.4
245,2022-02-07T04:04:00,0.3,南西,1,南南西,-1,89.8,0,0,0,0,0,0,1010.6,1025.4
246,2022-02-07T04:05:00,0.3,南南西,1,南南西,-1.2,88.4,0,0,0,0,0,0,1010.5,1025.3
247,2022-02-07T04:06:00,0.3,南南西,1,南南西,-1.1,88.5,0,0,0,0,0,0,1010.5,1025.3
248,2022-02-07T04:07:00,0.4,南南西,1,南南西,-1.3,88.3,0,0,0,0,0,0,1010.5,1025.3
249,2022-02-07T04:08:00,0.4,南西,1.2,南南西,-1.4,87.6,0,0,0,0,0,0,1010.5,1025.3
250,2022-02-07T04:09:00,0.5,南南西,1.3,南南西,-1.4,87.8,0,0,0,0,0,0,1010.4,1025.2
251,2022-02-07T04:10:00,0.6,南南西,1.3,南南西,-1.4,88,0,0,0,0,0,0,1010.4,1025.2
252,2022-02-07T04:11:00,0.6,南南西,1.3,南南西,-1.5,88,0,0,0,0,0,0,1010.3,1025.1
253,2022-02-07T04:12:00,0.7,南南西,1.3,南南西,-1.6,87.5,0,0,0,0,0,0,1010.3,1025.1
254,2022-02-07T04:13:00,0.7,南南西,1.5,南,-1.7,87.3,0,0,0,0,0,0,1010.3,1025.1
255,2022-02-07T04:14:00,0.7,南南西,1.5,南,-1.7,87.5,0,0,0,0,0,0,1010.3,1025.1
256,2022-02-07T04:15:00,0.8,南南西,1.5,南,-1.7,87.9,0,0,0,0,0,0,1010.3,1025.1
257,2022-02-07T04:16:00,0.9,南南西,1.8,南南西,-1.7,88.3,0,0,0,0,0,0,1010.3,1025.1
258,2022-02-07T04:17:00,1,南南西,1.8,南南西,-1.7,88.1,0,0,0,0,0,0,1010.3,1025.1
259,2022-02-07T04:18:00,1,南南西,1.8,南南西,-1.7,88.4,0,0,0,0,0,0,1010.3,1025.1
260,2022-02-07T04:19:00,1,南南西,1.8,南南西,-1.8,88.5,0,0,0,0,0,0,1010.3,1025.1
261,2022-02-07T04:20:00,0.9,南南西,1.8,南南西,-1.5,89.1,0,0,0,0,0,0,1010.3,1025.1
262,2022-02-07T04:21:00,0.9,南南西,1.8,南南西,-1.4,89.9,0,0,0,0,0,0,1010.4,1025.2
263,2022-02-07T04:22:00,0.9,南南西,1.8,南南西,-1.4,90.1,0,0,0,0,0,0,1010.4,1025.2
264,2022-02-07T04:23:00,0.9,南南西,1.8,南南西,-1.5,89.5,0,0,0,0,0,0,1010.4,1025.2
265,2022-02-07T04:24:00,0.7,南南西,1.8,南南西,-1.4,89.6,0,0,0,0,0,0,1010.3,1025.1
266,2022-02-07T04:25:00,0.7,南南西,1.8,南南西,-1.4,89.6,0,0,0,0,0,0,1010.4,1025.2
267,2022-02-07T04:26:00,0.6,南南西,1.8,南南西,-1.5,89.4,0,0,0,0,0,0,1010.4,1025.2
268,2022-02-07T04:27:00,0.5,南南西,1.7,南,-1.7,88.9,0,0,0,0,0,0,1010.4,1025.2
269,2022-02-07T04:28:00,0.3,南,1.3,南南西,-1.6,88.9,0,0,0,0,0,0,1010.3,1025.1
270,2022-02-07T04:29:00,0.3,南,1.1,西南西,-1.6,89.2,0,0,0,0,0,0,1010.3,1025.1
271,2022-02-07T04:30:00,0.3,南,1.1,西南西,-1.6,89.2,0,0,0,0,0,0,1010.4,1025.2
272,2022-02-07T04:31:00,0.2,静穏,0.9,南南西,-1.5,89.5,0,0,0,0,0,0,1010.4,1025.2
273,2022-02-07T04:32:00,0.2,静穏,0.9,南西,-1.5,89.6,0,0,0,0,0,0,1010.4,1025.2
274,2022-02-07T04:33:00,0.2,静穏,1.2,南西,-1.4,89.7,0,0,0,0,0,0,1010.4,1025.2
275,2022-02-07T04:34:00,0.3,南,1.4,南西,-1.3,89.9,0,0,0,0,0,0,1010.5,1025.3
276,2022-02-07T04:35:00,0.3,南,1.4,南西,-1.4,89.9,0,0,0,0,0,0,1010.4,1025.2
277,2022-02-07T04:36:00,0.4,南,1.4,南西,-1.5,89.2,0,0,0,0,0,0,1010.4,1025.2
278,2022-02-07T04:37:00,0.4,南南西,1.4,南西,-1.5,89.5,0,0,0,0,0,0,1010.3,1025.1
279,2022-02-07T04:38:00,0.4,南南西,1.4,南西,-1.5,89.4,0,0,0,0,0,0,1010.3,1025.1
280,2022-02-07T04:39:00,0.5,南南西,1.4,南西,-1.8,88.5,0,0,0,0,0,0,1010.3,1025.1
281,2022-02-07T04:40:00,0.5,南南西,1.4,南西,-1.8,88.3,0,0,0,0,0,0,1010.4,1025.2
282,2022-02-07T04:41:00,0.5,南南西,1.4,南西,-1.7,88.7,0,0,0,0,0,0,1010.3,1025.1
283,2022-02-07T04:42:00,0.5,南南西,1.4,南西,-1.8,89,0,0,0,0,0,0,1010.4,1025.2
284,2022-02-07T04:43:00,0.5,南南西,1.4,南西,-1.7,89,0,0,0,0,0,0,1010.5,1025.3
285,2022-02-07T04:44:00,0.5,南南西,1.2,南,-1.4,89.7,0,0,0,0,0,0,1010.5,1025.3
286,2022-02-07T04:45:00,0.5,南南西,1.2,南,-1.5,90.2,0,0,0,0,0,0,1010.6,1025.4
287,2022-02-07T04:46:00,0.5,南南西,1.2,南,-1.7,89.3,0,0,0,0,0,0,1010.6,1025.4
288,2022-02-07T04:47:00,0.5,南南西,1.2,南,-1.8,89.2,0,0,0,0,0,0,1010.6,1025.4
289,2022-02-07T04:48:00,0.4,南西,1.2,南,-1.8,89.1,0,0,0,0,0,0,1010.6,1025.4
290,2022-02-07T04:49:00,0.4,南西,1.2,南,-1.7,89.6,0,0,0,0,0,0,1010.6,1025.4
291,2022-02-07T04:50:00,0.4,南西,1.2,南,-1.7,89.7,0,0,0,0,0,0,1010.6,1025.4
292,2022-02-07T04:51:00,0.4,南南西,1.2,南,-1.8,89.5,0,0,0,0,0,0,1010.6,1025.4
293,2022-02-07T04:52:00,0.4,南南西,1.2,南,-1.9,89.4,0,0,0,0,0,0,1010.5,1025.3
294,2022-02-07T04:53:00,0.4,南南西,1,南西,-1.7,89.7,0,0,0,0,0,0,1010.5,1025.3
295,2022-02-07T04:54:00,0.3,南南西,1,南西,-1.7,90.2,0,0,0,0,0,0,1010.5,1025.3
296,2022-02-07T04:55:00,0.3,南,1,南西,-1.7,90.4,0,0,0,0,0,0,1010.5,1025.3
297,2022-02-07T04:56:00,0.3,南,1,南西,-1.7,90.2,0,0,0,0,0,0,1010.6,1025.4
298,2022-02-07T04:57:00,0.4,南,1.2,南南西,-1.7,90.2,0,0,0,0,0,0,1010.5,1025.3
299,2022-02-07T04:58:00,0.4,南,1.2,南南西,-1.6,90.6,0,0,0,0,0,0,1010.5,1025.3
300,2022-02-07T04:59:00,0.4,南,1.2,南南西,-1.7,90.5,0,0,0,0,0,0,1010.4,1025.2
301,2022-02-07T05:00:00,0.5,南,1.5,南南東,-1.7,90.4,0,0,0,0,0,0,1010.4,1025.2
302,2022-02-07T05:01:00,0.5,南,1.5,南南東,-1.8,90.1,0,0,0,0,0,0,1010.4,1025.2
303,2022-02-07T05:02:00,0.5,南,1.5,南南東,-1.8,90.2,0,0,0,0,0,0,1010.5,1025.3
304,2022-02-07T05:03:00,0.5,南,1.5,南南東,-1.8,90.1,0,0,0,0,0,0,1010.5,1025.3
305,2022-02-07T05:04:00,0.6,南,1.5,南南東,-1.7,90.5,0,0,0,0,0,0,1010.4,1025.2
306,2022-02-07T05:05:00,0.6,南南西,1.7,南南西,-1.5,91.3,0,0,0,0,0,0,1010.4,1025.2
307,2022-02-07T05:06:00,0.7,南南西,1.7,南南西,-1.6,91.3,0,0,0,0,0,0,1010.4,1025.2
308,2022-02-07T05:07:00,0.7,南南西,1.7,南南西,-1.6,91,0,0,0,0,0,0,1010.4,1025.2
309,2022-02-07T05:08:00,0.7,南南西,1.7,南南西,-1.7,90.6,0,0,0,0,0,0,1010.5,1025.3
310,2022-02-07T05:09:00,0.8,南南西,1.7,南南西,-1.6,90.6,0,0,0,0,0,0,1010.5,1025.3
311,2022-02-07T05:10:00,0.7,南南西,1.7,南南西,-1.6,91.1,0,0,0,0,0,0,1010.5,1025.3
312,2022-02-07T05:11:00,0.7,南西,1.7,南南西,-1.7,90.8,0,0,0,0,0,0,1010.5,1025.3
313,2022-02-07T05:12:00,0.6,南西,1.7,南南西,-1.4,91,0,0,0,0,0,0,1010.4,1025.2
314,2022-02-07T05:13:00,0.6,南西,1.7,南南西,-1.7,91,0,0,0,0,0,0,1010.4,1025.2
315,2022-02-07T05:14:00,0.6,南西,1.7,南南西,-1.8,90.1,0,0,0,0,0,0,1010.4,1025.2
316,2022-02-07T05:15:00,0.5,南西,1.5,南南西,-1.9,90.1,0,0,0,0,0,0,1010.3,1025.1
317,2022-02-07T05:16:00,0.5,南西,1.5,南南西,-1.9,90.1,0,0,0,0,0,0,1010.4,1025.2
318,2022-02-07T05:17:00,0.4,南南西,1.5,南南西,-1.7,90.5,0,0,0,0,0,0,1010.4,1025.2
319,2022-02-07T05:18:00,0.3,南南西,1,南西,-1.8,91,0,0,0,0,0,0,1010.4,1025.2
320,2022-02-07T05:19:00,0.3,南南西,0.8,南南西,-1.8,90.4,0,0,0,0,0,0,1010.5,1025.3
321,2022-02-07T05:20:00,0.3,南南西,0.8,南南西,-1.7,90.5,0,0,0,0,0,0,1010.4,1025.2
322,2022-02-07T05:21:00,0.3,南南西,0.8,南南西,-1.6,91.3,0,0,0,0,0,0,1010.5,1025.3
323,2022-02-07T05:22:00,0.4,南西,0.9,南西,-1.7,91.2,0,0,0,0,0,0,1010.4,1025.2
324,2022-02-07T05:23:00,0.4,南南西,0.9,南西,-1.4,91.5,0,0,0,0,0,0,1010.4,1025.2